Poplar Bluff, MO

1:04 AM CDT on March 26, 2017 (GMT -0500)
Poplar Bluff Municipal

Weather History for KPOF - December, 2014

Change the Weather History Date:

Thursday, December 4, 2014

  Actual Average Record
Temperature  
Mean Temperature 41 °F -  
Max Temperature 43 °F 52 °F 74 °F (1970)
Min Temperature 39 °F 30 °F 9 °F (1929)
Degree Days  
Heating Degree Days 24    
Moisture  
Dew Point 38 °F    
Average Humidity 91    
Maximum Humidity 93    
Minimum Humidity 76    
Precipitation  
Precipitation 0.15 in - - ()
Sea Level Pressure  
Sea Level Pressure 30.25 in    
Wind  
Wind Speed 5 mph (NE)    
Max Wind Speed 8 mph    
Max Gust Speed -    
Visibility 3 miles    
Events Fog , Rain    
Averages and records for this station are not official NWS values.
T = Trace of Precipitation, MM = Missing Value Source: NWS Daily Summary

Daily Weather History Graph

Daily Weather History Graph

Search for Another Location

Airport or City:

Trip Planner

Search our weather history database for the weather conditions in past years. The results will help you decide how hot, cold, wet, or windy it might be!

Date:

Astronomy

Dec. 04, 2014 Rise Set
Actual Time 6:58 AM CST 4:44 PM CST
Civil Twilight 6:29 AM CST 5:13 PM CST
Nautical Twilight 5:57 AM CST 5:45 PM CST
Astronomical Twilight 5:25 AM CST 6:16 PM CST
Moon 3:44 PM CST (12/4) 4:52 AM CST (12/4)
Length of Visible Light 10h 44m
Length of Day
9h 46m
Waxing Gibbous, 97% of the Moon is Illuminated
Dec 4
Waxing Gibbous
Dec 6
Full
Dec 14
Last Quarter
Dec 21
New
Dec 28
First Quarter

Hourly Weather History & Observations

Time (CST) Temp. Windchill Dew Point Humidity Pressure Visibility Wind Dir Wind Speed Gust Speed Precip Events Conditions
12:06 AM 41.0 °F 38.0 °F 34.0 °F 76% 30.30 in 10.0 mi NNE 4.6 mph - 0.00 in Rain Light Rain
12:53 AM 39.9 °F 35.8 °F 35.1 °F 83% 30.30 in 5.0 mi NNE 5.8 mph - 0.02 in Rain Light Rain
1:46 AM 39.0 °F 34.0 °F 36.0 °F 89% 30.28 in 2.5 mi NE 6.9 mph - 0.02 in Rain Light Rain
1:53 AM 39.0 °F 34.0 °F 36.0 °F 89% 30.30 in 4.0 mi NE 6.9 mph - 0.02 in Rain Light Rain
2:53 AM 39.0 °F 33.4 °F 36.0 °F 89% 30.29 in 5.0 mi NE 8.1 mph - 0.00 in Rain Light Rain
3:01 AM 39.0 °F 33.4 °F 36.0 °F 89% 30.28 in 4.0 mi ENE 8.1 mph - 0.00 in   Overcast
3:13 AM 39.0 °F 34.0 °F 36.0 °F 89% 30.27 in 3.0 mi NE 6.9 mph - 0.00 in   Overcast
3:41 AM 39.0 °F 33.4 °F 37.0 °F 93% 30.27 in 2.0 mi ENE 8.1 mph - 0.01 in Rain Light Rain
3:53 AM 39.0 °F 34.8 °F 37.0 °F 93% 30.29 in 1.8 mi NE 5.8 mph - 0.02 in Rain Light Rain
4:02 AM 39.0 °F 34.0 °F 37.0 °F 93% 30.27 in 2.0 mi ENE 6.9 mph - 0.00 in Rain Light Rain
4:13 AM 39.0 °F 36.8 °F 37.0 °F 93% 30.27 in 2.5 mi NE 3.5 mph - 0.00 in Rain Light Rain
4:26 AM 39.0 °F 34.8 °F 37.0 °F 93% 30.27 in 3.0 mi ENE 5.8 mph - 0.00 in   Overcast
4:53 AM 39.0 °F 34.8 °F 37.0 °F 93% 30.27 in 4.0 mi ENE 5.8 mph - 0.00 in   Overcast
5:53 AM 39.9 °F 35.1 °F 37.0 °F 89% 30.28 in 3.0 mi NE 6.9 mph - N/A   Overcast
6:24 AM 39.9 °F 35.8 °F 37.0 °F 89% 30.27 in 2.5 mi ENE 5.8 mph - 0.00 in Rain Light Rain
6:51 AM 39.2 °F 35.9 °F 37.4 °F 93% 30.27 in 2.5 mi ENE 4.6 mph - 0.01 in Rain Light Rain
6:53 AM 39.9 °F 36.7 °F 37.0 °F 89% 30.29 in 2.5 mi ENE 4.6 mph - 0.01 in   Overcast
7:15 AM 39.9 °F 37.8 °F 37.0 °F 89% 30.28 in 3.0 mi ENE 3.5 mph - 0.00 in   Overcast
7:31 AM 39.9 °F 36.7 °F 37.0 °F 89% 30.27 in 2.0 mi East 4.6 mph - 0.00 in   Overcast
7:43 AM 39.9 °F 36.7 °F 37.0 °F 89% 30.27 in 1.8 mi ENE 4.6 mph - 0.00 in   Overcast
7:53 AM 39.9 °F 37.8 °F 37.9 °F 93% 30.29 in 1.8 mi ENE 3.5 mph - 0.00 in   Overcast
8:11 AM 39.9 °F 36.7 °F 37.9 °F 93% 30.27 in 1.8 mi East 4.6 mph - N/A   Mist
8:32 AM 39.9 °F 36.7 °F 37.9 °F 93% 30.28 in 1.5 mi NE 4.6 mph - N/A   Overcast
8:53 AM 39.9 °F 36.7 °F 37.9 °F 93% 30.29 in 1.0 mi ENE 4.6 mph - 0.00 in   Overcast
9:49 AM 41.0 °F 37.1 °F 37.4 °F 87% 30.28 in 3.0 mi NE 5.8 mph - 0.03 in Rain Light Rain
9:53 AM 41.0 °F 38.0 °F 37.9 °F 89% 30.30 in 3.0 mi ENE 4.6 mph - 0.03 in   Overcast
10:06 AM 41.0 °F 38.0 °F 37.9 °F 89% 30.29 in 4.0 mi NE 4.6 mph - N/A   Overcast
10:18 AM 41.0 °F 38.0 °F 39.0 °F 93% 30.29 in 2.5 mi NE 4.6 mph - N/A   Overcast
10:31 AM 41.0 °F 38.0 °F 39.0 °F 93% 30.28 in 1.2 mi NE 4.6 mph - N/A   Overcast
10:41 AM 41.0 °F 39.0 °F 39.0 °F 93% 30.28 in 1.2 mi NNE 3.5 mph - N/A   Overcast
10:53 AM 41.0 °F 39.0 °F 39.0 °F 93% 30.29 in 1.0 mi NNE 3.5 mph - N/A   Overcast
11:10 AM 41.0 °F 38.0 °F 39.0 °F 93% 30.26 in 1.0 mi NE 4.6 mph - 0.01 in Rain Light Rain
11:31 AM 41.0 °F 38.0 °F 39.0 °F 93% 30.25 in 1.0 mi ENE 4.6 mph - 0.02 in Rain Light Rain
11:42 AM 41.0 °F 38.0 °F 39.0 °F 93% 30.24 in 1.5 mi NE 4.6 mph - 0.03 in Rain Light Rain
11:49 AM 41.0 °F 37.1 °F 39.2 °F 93% 30.24 in 2.0 mi NE 5.8 mph - 0.03 in   Overcast
11:53 AM 41.0 °F 37.1 °F 39.0 °F 93% 30.25 in 1.8 mi NE 5.8 mph - 0.03 in   Overcast
12:16 PM 42.1 °F 38.4 °F 39.0 °F 89% 30.23 in 2.0 mi NE 5.8 mph - N/A   Overcast
12:26 PM 42.8 °F 38.6 °F 39.2 °F 87% 30.22 in 3.0 mi NNE 6.9 mph - N/A   Overcast
12:38 PM 42.1 °F 38.4 °F 39.0 °F 89% 30.22 in 4.0 mi NE 5.8 mph - N/A   Overcast
12:53 PM 42.1 °F 38.4 °F 39.0 °F 89% 30.23 in 6.0 mi NNE 5.8 mph - N/A   Overcast
1:13 PM 42.1 °F 38.4 °F 39.0 °F 89% 30.22 in 7.0 mi NNE 5.8 mph - N/A   Overcast
1:53 PM 42.1 °F 39.2 °F 39.0 °F 89% 30.21 in 6.0 mi NE 4.6 mph - N/A   Overcast
2:04 PM 42.1 °F 39.2 °F 39.0 °F 89% 30.19 in 5.0 mi NE 4.6 mph - N/A   Overcast
2:53 PM 43.0 °F 40.3 °F 39.9 °F 89% 30.21 in 4.0 mi ENE 4.6 mph - N/A   Overcast
3:53 PM 43.0 °F 40.3 °F 39.9 °F 89% 30.20 in 4.0 mi ENE 4.6 mph - N/A   Overcast
4:40 PM 42.1 °F 39.2 °F 39.9 °F 92% 30.19 in 3.0 mi NE 4.6 mph - N/A   Overcast
4:53 PM 42.1 °F 38.4 °F 39.9 °F 92% 30.21 in 4.0 mi ENE 5.8 mph - N/A   Overcast
5:09 PM 42.1 °F 40.2 °F 39.9 °F 92% 30.20 in 2.5 mi ENE 3.5 mph - N/A   Overcast
5:53 PM 42.1 °F 39.2 °F 39.9 °F 92% 30.22 in 1.0 mi ENE 4.6 mph - N/A   Overcast
6:53 PM 42.1 °F 40.2 °F 39.9 °F 92% 30.22 in 1.2 mi ENE 3.5 mph - N/A   Overcast
7:18 PM 42.1 °F - 39.9 °F 92% 30.21 in 0.8 mi Calm Calm - N/A   Overcast
7:53 PM 42.1 °F - 39.9 °F 92% 30.22 in 0.5 mi Calm Calm - N/A Fog Fog
8:53 PM 42.1 °F 40.2 °F 39.9 °F 92% 30.21 in 0.5 mi NE 3.5 mph - 0.00 in Fog , Rain Light Rain
9:09 PM 42.1 °F 39.2 °F 39.9 °F 92% 30.19 in 1.5 mi NE 4.6 mph - 0.01 in Rain Light Rain
9:32 PM 42.1 °F - 39.9 °F 92% 30.20 in 2.5 mi Calm Calm - 0.01 in Rain Light Rain
9:53 PM 42.1 °F - 39.9 °F 92% 30.21 in 2.5 mi Calm Calm - 0.01 in Rain Light Rain
10:17 PM 42.1 °F - 39.9 °F 92% 30.20 in 3.0 mi Calm Calm - 0.01 in   Overcast
10:34 PM 42.1 °F - 39.9 °F 92% 30.19 in 2.5 mi Calm Calm - 0.01 in   Overcast
10:42 PM 42.1 °F 40.2 °F 39.9 °F 92% 30.19 in 2.5 mi ENE 3.5 mph - 0.01 in   Overcast
10:53 PM 42.1 °F - 39.9 °F 92% 30.21 in 3.0 mi Calm Calm - 0.01 in   Overcast
11:09 PM 43.0 °F - 39.9 °F 89% 30.19 in 2.5 mi Calm Calm - N/A   Overcast
11:53 PM 43.0 °F - 39.9 °F 89% 30.20 in 2.5 mi Calm Calm - N/A   Overcast